����������;��������(kVARh)
2019-04-22 00:00;4,1
2019-04-22 00:15;0
2019-04-22 00:30;0,05
2019-04-22 00:45;0
2019-04-22 01:00;0
2019-04-22 01:15;0
2019-04-22 01:30;0
2019-04-22 01:45;0
2019-04-22 02:00;0
2019-04-22 02:15;0
2019-04-22 02:30;0,05
2019-04-22 02:45;1,95
2019-04-22 03:00;1,65
2019-04-22 03:15;2,75
2019-04-22 03:30;2,4
2019-04-22 03:45;3,3
2019-04-22 04:00;2,75
2019-04-22 04:15;1,85
2019-04-22 04:30;1,75
2019-04-22 04:45;1,7
2019-04-22 05:00;2,25
2019-04-22 05:15;1,8
2019-04-22 05:30;1,65
2019-04-22 05:45;1,35
2019-04-22 06:00;1,5
2019-04-22 06:15;1,05
2019-04-22 06:30;0,3
2019-04-22 06:45;0,15
2019-04-22 07:00;0,3
2019-04-22 07:15;0,45
2019-04-22 07:30;29,55
2019-04-22 07:45;11,45
2019-04-22 08:00;8,35
2019-04-22 08:15;10,75
2019-04-22 08:30;9,1
2019-04-22 08:45;14,6
2019-04-22 09:00;13
2019-04-22 09:15;10,5
2019-04-22 09:30;12,25
2019-04-22 09:45;19,55
2019-04-22 10:00;15,4
2019-04-22 10:15;19,2
2019-04-22 10:30;14,65
2019-04-22 10:45;19,15
2019-04-22 11:00;14,9
2019-04-22 11:15;20,8
2019-04-22 11:30;13,9
2019-04-22 11:45;16,55
2019-04-22 12:00;21,25
2019-04-22 12:15;23,6
2019-04-22 12:30;20,8
2019-04-22 12:45;24,5
2019-04-22 13:00;24,1
2019-04-22 13:15;20,4
2019-04-22 13:30;21,1
2019-04-22 13:45;24,3
2019-04-22 14:00;28,8
2019-04-22 14:15;23,5
2019-04-22 14:30;28,3
2019-04-22 14:45;25
2019-04-22 15:00;22,4
2019-04-22 15:15;20,85
2019-04-22 15:30;10,65
2019-04-22 15:45;13,4
2019-04-22 16:00;8,85
2019-04-22 16:15;12,6
2019-04-22 16:30;10,55
2019-04-22 16:45;6,2
2019-04-22 17:00;11,65
2019-04-22 17:15;9,4
2019-04-22 17:30;9,2
2019-04-22 17:45;15,4
2019-04-22 18:00;8,25
2019-04-22 18:15;7,15
2019-04-22 18:30;3,75
2019-04-22 18:45;1,8
2019-04-22 19:00;9,7
2019-04-22 19:15;9,7
2019-04-22 19:30;7,85
2019-04-22 19:45;5,45
2019-04-22 20:00;5,05
2019-04-22 20:15;5,35
2019-04-22 20:30;4,5
2019-04-22 20:45;3,05
2019-04-22 21:00;2,55
2019-04-22 21:15;5,6
2019-04-22 21:30;7,15
2019-04-22 21:45;7,85
2019-04-22 22:00;3,65
2019-04-22 22:15;2,35
2019-04-22 22:30;2,3
2019-04-22 22:45;3,9
2019-04-22 23:00;6,8
2019-04-22 23:15;4,9
2019-04-22 23:30;5,65
2019-04-22 23:45;5,1
2019-04-23 00:00;4,05
2019-04-23 00:15;3
2019-04-23 00:30;1,1
2019-04-23 00:45;1,4
2019-04-23 01:00;2,1
2019-04-23 01:15;2,4
2019-04-23 01:30;2,55
2019-04-23 01:45;4,15
2019-04-23 02:00;3,95
2019-04-23 02:15;5
2019-04-23 02:30;4,75
2019-04-23 02:45;2,9
2019-04-23 03:00;3,7
2019-04-23 03:15;3,25
2019-04-23 03:30;2,8
2019-04-23 03:45;4,15
2019-04-23 04:00;4,35
2019-04-23 04:15;2,9
2019-04-23 04:30;3,6
2019-04-23 04:45;4
2019-04-23 05:00;5,75
2019-04-23 05:15;5,15
2019-04-23 05:30;5,7
2019-04-23 05:45;5,05
2019-04-23 06:00;5,4
2019-04-23 06:15;5,7
2019-04-23 06:30;4,15
2019-04-23 06:45;3,25
2019-04-23 07:00;3,8
2019-04-23 07:15;4,4
2019-04-23 07:30;31,95
2019-04-23 07:45;0,65
2019-04-23 08:00;8,1
2019-04-23 08:15;10,4
2019-04-23 08:30;17,05
2019-04-23 08:45;13,55
2019-04-23 09:00;11,7
2019-04-23 09:15;20,9
2019-04-23 09:30;19,65
2019-04-23 09:45;23,1
2019-04-23 10:00;19,5
2019-04-23 10:15;23,2
2019-04-23 10:30;17,4
2019-04-23 10:45;21,15
2019-04-23 11:00;23,8
2019-04-23 11:15;21,6
2019-04-23 11:30;22,6
2019-04-23 11:45;19,75
2019-04-23 12:00;21,9
2019-04-23 12:15;23,9
2019-04-23 12:30;24,7
2019-04-23 12:45;24,5
2019-04-23 13:00;14,25
2019-04-23 13:15;13,4
2019-04-23 13:30;22,95
2019-04-23 13:45;19,5
2019-04-23 14:00;19,85
2019-04-23 14:15;10,75
2019-04-23 14:30;19,25
2019-04-23 14:45;19,15
2019-04-23 15:00;10,6
2019-04-23 15:15;12,65
2019-04-23 15:30;9
2019-04-23 15:45;11,4
2019-04-23 16:00;12
2019-04-23 16:15;8,15
2019-04-23 16:30;12,05
2019-04-23 16:45;8,7
2019-04-23 17:00;9,6
2019-04-23 17:15;15,4
2019-04-23 17:30;9,85
2019-04-23 17:45;12,35
2019-04-23 18:00;9,6
2019-04-23 18:15;9,6
2019-04-23 18:30;9,75
2019-04-23 18:45;9,45
2019-04-23 19:00;8
2019-04-23 19:15;8,35
2019-04-23 19:30;6,75
2019-04-23 19:45;7,4
2019-04-23 20:00;5,2
2019-04-23 20:15;6,4
2019-04-23 20:30;6,4
2019-04-23 20:45;5,8
2019-04-23 21:00;6,35
2019-04-23 21:15;7,05
2019-04-23 21:30;5,25
2019-04-23 21:45;3,4
2019-04-23 22:00;0,1
2019-04-23 22:15;0,75
2019-04-23 22:30;1,25
2019-04-23 22:45;0,4
2019-04-23 23:00;1,75
2019-04-23 23:15;3,35
2019-04-23 23:30;5,4
2019-04-23 23:45;4,35
2019-04-24 00:00;4,75
2019-04-24 00:15;7,45
2019-04-24 00:30;1,8
2019-04-24 00:45;1,2
2019-04-24 01:00;2
2019-04-24 01:15;1,7
2019-04-24 01:30;1,95
2019-04-24 01:45;1
2019-04-24 02:00;0,2
2019-04-24 02:15;0,45
2019-04-24 02:30;0,45
2019-04-24 02:45;1,2
2019-04-24 03:00;1,8
2019-04-24 03:15;1,75
2019-04-24 03:30;1,45
2019-04-24 03:45;1,75
2019-04-24 04:00;3,1
2019-04-24 04:15;2,6
2019-04-24 04:30;1,8
2019-04-24 04:45;2,3
2019-04-24 05:00;1,2
2019-04-24 05:15;0,25
2019-04-24 05:30;1,8
2019-04-24 05:45;2,55
2019-04-24 06:00;1,1
2019-04-24 06:15;0
2019-04-24 06:30;1
2019-04-24 06:45;0,65
2019-04-24 07:00;0,55
2019-04-24 07:15;1,75
2019-04-24 07:30;29,6
2019-04-24 07:45;4,8
2019-04-24 08:00;7,7
2019-04-24 08:15;5,75
2019-04-24 08:30;7
2019-04-24 08:45;11,6
2019-04-24 09:00;7,55
2019-04-24 09:15;12,7
2019-04-24 09:30;14,15
2019-04-24 09:45;17,3
2019-04-24 10:00;14,1
2019-04-24 10:15;12,9
2019-04-24 10:30;16,4
2019-04-24 10:45;14,15
2019-04-24 11:00;14,8
2019-04-24 11:15;13,9
2019-04-24 11:30;14,65
2019-04-24 11:45;16,35
2019-04-24 12:00;15,85
2019-04-24 12:15;17,55
2019-04-24 12:30;14,3
2019-04-24 12:45;16,95
2019-04-24 13:00;19,65
2019-04-24 13:15;9,9
2019-04-24 13:30;9,45
2019-04-24 13:45;11,9
2019-04-24 14:00;12,7
2019-04-24 14:15;16
2019-04-24 14:30;18,2
2019-04-24 14:45;12,7
2019-04-24 15:00;15,8
2019-04-24 15:15;9,5
2019-04-24 15:30;9,35
2019-04-24 15:45;11,95
2019-04-24 16:00;10,25
2019-04-24 16:15;9
2019-04-24 16:30;9,15
2019-04-24 16:45;11,35
2019-04-24 17:00;7,55
2019-04-24 17:15;7,55
2019-04-24 17:30;8,8
2019-04-24 17:45;4,95
2019-04-24 18:00;5,2
2019-04-24 18:15;5,6
2019-04-24 18:30;10,6
2019-04-24 18:45;12
2019-04-24 19:00;10,8
2019-04-24 19:15;10,3
2019-04-24 19:30;9,05
2019-04-24 19:45;8,45
2019-04-24 20:00;7,6
2019-04-24 20:15;7,55
2019-04-24 20:30;6,9
2019-04-24 20:45;4,5
2019-04-24 21:00;4,15
2019-04-24 21:15;5,75
2019-04-24 21:30;4,05
2019-04-24 21:45;4,5
2019-04-24 22:00;2,8
2019-04-24 22:15;4,2
2019-04-24 22:30;1,6
2019-04-24 22:45;0,7
2019-04-24 23:00;2,4
2019-04-24 23:15;1,1
2019-04-24 23:30;5,35
2019-04-24 23:45;5,9
2019-04-25 00:00;6,3
2019-04-25 00:15;7,35
2019-04-25 00:30;7,8
2019-04-25 00:45;9,9
2019-04-25 01:00;10,7
2019-04-25 01:15;6,05
2019-04-25 01:30;0
2019-04-25 01:45;0
2019-04-25 02:00;0
2019-04-25 02:15;0
2019-04-25 02:30;0,15
2019-04-25 02:45;0
2019-04-25 03:00;0,05
2019-04-25 03:15;0,2
2019-04-25 03:30;0,05
2019-04-25 03:45;0,3
2019-04-25 04:00;0,4
2019-04-25 04:15;0
2019-04-25 04:30;0
2019-04-25 04:45;0
2019-04-25 05:00;0
2019-04-25 05:15;0,1
2019-04-25 05:30;0,85
2019-04-25 05:45;0,7
2019-04-25 06:00;0,1
2019-04-25 06:15;0
2019-04-25 06:30;0,15
2019-04-25 06:45;1
2019-04-25 07:00;7,6
2019-04-25 07:15;9,55
2019-04-25 07:30;34,95
2019-04-25 07:45;3,6
2019-04-25 08:00;6,3
2019-04-25 08:15;8,65
2019-04-25 08:30;5,25
2019-04-25 08:45;8,1
2019-04-25 09:00;7,5
2019-04-25 09:15;12,2
2019-04-25 09:30;12,7
2019-04-25 09:45;11,25
2019-04-25 10:00;10,05
2019-04-25 10:15;9,55
2019-04-25 10:30;10,25
2019-04-25 10:45;14,75
2019-04-25 11:00;11,95
2019-04-25 11:15;13,6
2019-04-25 11:30;14,2
2019-04-25 11:45;13,3
2019-04-25 12:00;10,6
2019-04-25 12:15;6,4
2019-04-25 12:30;5,8
2019-04-25 12:45;5,6
2019-04-25 13:00;3,75
2019-04-25 13:15;3,1
2019-04-25 13:30;2,45
2019-04-25 13:45;2,8
2019-04-25 14:00;1,3
2019-04-25 14:15;0,5
2019-04-25 14:30;1
2019-04-25 14:45;0,35
2019-04-25 15:00;0,25
2019-04-25 15:15;0
2019-04-25 15:30;1,2
2019-04-25 15:45;0,15
2019-04-25 16:00;0,15
2019-04-25 16:15;0,85
2019-04-25 16:30;0,1
2019-04-25 16:45;0,1
2019-04-25 17:00;1
2019-04-25 17:15;1,4
2019-04-25 17:30;2,9
2019-04-25 17:45;1,6
2019-04-25 18:00;1,85
2019-04-25 18:15;1,9
2019-04-25 18:30;0,95
2019-04-25 18:45;0,05
2019-04-25 19:00;0
2019-04-25 19:15;0
2019-04-25 19:30;0
2019-04-25 19:45;0,05
2019-04-25 20:00;0
2019-04-25 20:15;0,1
2019-04-25 20:30;0
2019-04-25 20:45;0
2019-04-25 21:00;0,05
2019-04-25 21:15;0,7
2019-04-25 21:30;1
2019-04-25 21:45;1,1
2019-04-25 22:00;1
2019-04-25 22:15;1,95
2019-04-25 22:30;1,45
2019-04-25 22:45;0,5
2019-04-25 23:00;2,45
2019-04-25 23:15;1,8
2019-04-25 23:30;3,55
2019-04-25 23:45;2,6
2019-04-26 00:00;1,75
2019-04-26 00:15;2,3
2019-04-26 00:30;0,35
2019-04-26 00:45;0,3
2019-04-26 01:00;0,25
2019-04-26 01:15;0,35
2019-04-26 01:30;0,15
2019-04-26 01:45;0
2019-04-26 02:00;0
2019-04-26 02:15;0
2019-04-26 02:30;0
2019-04-26 02:45;0
2019-04-26 03:00;0
2019-04-26 03:15;0
2019-04-26 03:30;0
2019-04-26 03:45;0
2019-04-26 04:00;0
2019-04-26 04:15;0
2019-04-26 04:30;0
2019-04-26 04:45;0
2019-04-26 05:00;0
2019-04-26 05:15;0
2019-04-26 05:30;0
2019-04-26 05:45;0
2019-04-26 06:00;0
2019-04-26 06:15;0
2019-04-26 06:30;0
2019-04-26 06:45;0
2019-04-26 07:00;0
2019-04-26 07:15;0
2019-04-26 07:30;0
2019-04-26 07:45;0
2019-04-26 08:00;0
2019-04-26 08:15;0
2019-04-26 08:30;0
2019-04-26 08:45;0
2019-04-26 09:00;0
2019-04-26 09:15;0
2019-04-26 09:30;0
2019-04-26 09:45;0
2019-04-26 10:00;0
2019-04-26 10:15;0
2019-04-26 10:30;0
2019-04-26 10:45;0
2019-04-26 11:00;0
2019-04-26 11:15;0
2019-04-26 11:30;0
2019-04-26 11:45;0
2019-04-26 12:00;0
2019-04-26 12:15;0
2019-04-26 12:30;0
2019-04-26 12:45;0
2019-04-26 13:00;0
2019-04-26 13:15;0
2019-04-26 13:30;0
2019-04-26 13:45;0
2019-04-26 14:00;0
2019-04-26 14:15;0
2019-04-26 14:30;0
2019-04-26 14:45;0
2019-04-26 15:00;0
2019-04-26 15:15;0,05
2019-04-26 15:30;0
2019-04-26 15:45;0,2
2019-04-26 16:00;0,8
2019-04-26 16:15;0,5
2019-04-26 16:30;0,5
2019-04-26 16:45;0,85
2019-04-26 17:00;2,7
2019-04-26 17:15;2,5
2019-04-26 17:30;4,2
2019-04-26 17:45;2,8
2019-04-26 18:00;2,75
2019-04-26 18:15;4,1
2019-04-26 18:30;2,75
2019-04-26 18:45;2,3
2019-04-26 19:00;0,95
2019-04-26 19:15;1,3
2019-04-26 19:30;1,5
2019-04-26 19:45;1,6
2019-04-26 20:00;1,6
2019-04-26 20:15;2
2019-04-26 20:30;2,9
2019-04-26 20:45;1,75
2019-04-26 21:00;2,9
2019-04-26 21:15;2,9
2019-04-26 21:30;4,1
2019-04-26 21:45;1,2
2019-04-26 22:00;0,4
2019-04-26 22:15;1,6
2019-04-26 22:30;1,85
2019-04-26 22:45;2,75
2019-04-26 23:00;3,75
2019-04-26 23:15;2,5
2019-04-26 23:30;2,05
2019-04-26 23:45;2,4
2019-04-27 00:00;3,8
2019-04-27 00:15;3,65
2019-04-27 00:30;4,5
2019-04-27 00:45;1,3
2019-04-27 01:00;0,1
2019-04-27 01:15;0
2019-04-27 01:30;0,25
2019-04-27 01:45;0,95
2019-04-27 02:00;1,9
2019-04-27 02:15;2,1
2019-04-27 02:30;1,4
2019-04-27 02:45;1,5
2019-04-27 03:00;3,1
2019-04-27 03:15;2,05
2019-04-27 03:30;2,1
2019-04-27 03:45;2,55
2019-04-27 04:00;2,95
2019-04-27 04:15;1,75
2019-04-27 04:30;1,3
2019-04-27 04:45;1,2
2019-04-27 05:00;1,4
2019-04-27 05:15;2,25
2019-04-27 05:30;1,75
2019-04-27 05:45;1,55
2019-04-27 06:00;1,45
2019-04-27 06:15;1,5
2019-04-27 06:30;1,3
2019-04-27 06:45;0,95
2019-04-27 07:00;0,65
2019-04-27 07:15;0
2019-04-27 07:30;0
2019-04-27 07:45;0
2019-04-27 08:00;0
2019-04-27 08:15;0
2019-04-27 08:30;0
2019-04-27 08:45;0
2019-04-27 09:00;0
2019-04-27 09:15;0
2019-04-27 09:30;0
2019-04-27 09:45;0
2019-04-27 10:00;0
2019-04-27 10:15;0
2019-04-27 10:30;0,05
2019-04-27 10:45;0,2
2019-04-27 11:00;0
2019-04-27 11:15;0,35
2019-04-27 11:30;0,45
2019-04-27 11:45;0,25
2019-04-27 12:00;0,3
2019-04-27 12:15;0
2019-04-27 12:30;0,2
2019-04-27 12:45;0,05
2019-04-27 13:00;0
2019-04-27 13:15;0
2019-04-27 13:30;0,05
2019-04-27 13:45;0
2019-04-27 14:00;0,2
2019-04-27 14:15;0,15
2019-04-27 14:30;0,05
2019-04-27 14:45;0,1
2019-04-27 15:00;0
2019-04-27 15:15;0,2
2019-04-27 15:30;0,1
2019-04-27 15:45;0,35
2019-04-27 16:00;0,35
2019-04-27 16:15;0,8
2019-04-27 16:30;0,2
2019-04-27 16:45;1,15
2019-04-27 17:00;1,9
2019-04-27 17:15;1,05
2019-04-27 17:30;1,2
2019-04-27 17:45;1,45
2019-04-27 18:00;1,55
2019-04-27 18:15;1,7
2019-04-27 18:30;1,6
2019-04-27 18:45;2,15
2019-04-27 19:00;2,25
2019-04-27 19:15;1,7
2019-04-27 19:30;2,15
2019-04-27 19:45;2
2019-04-27 20:00;1,8
2019-04-27 20:15;1,25
2019-04-27 20:30;0
2019-04-27 20:45;0,1
2019-04-27 21:00;0
2019-04-27 21:15;0
2019-04-27 21:30;0
2019-04-27 21:45;0
2019-04-27 22:00;0
2019-04-27 22:15;0
2019-04-27 22:30;0
2019-04-27 22:45;0
2019-04-27 23:00;0,65
2019-04-27 23:15;0,6
2019-04-27 23:30;0
2019-04-27 23:45;0
2019-04-28 00:00;0
2019-04-28 00:15;0
2019-04-28 00:30;0
2019-04-28 00:45;0
2019-04-28 01:00;0
2019-04-28 01:15;0
2019-04-28 01:30;0
2019-04-28 01:45;0
2019-04-28 02:00;0
2019-04-28 02:15;0
2019-04-28 02:30;0
2019-04-28 02:45;0
2019-04-28 03:00;0
2019-04-28 03:15;0
2019-04-28 03:30;0,05
2019-04-28 03:45;0
2019-04-28 04:00;0
2019-04-28 04:15;0
2019-04-28 04:30;0
2019-04-28 04:45;0
2019-04-28 05:00;0
2019-04-28 05:15;0
2019-04-28 05:30;0
2019-04-28 05:45;0
2019-04-28 06:00;0
2019-04-28 06:15;0
2019-04-28 06:30;0
2019-04-28 06:45;0
2019-04-28 07:00;0
2019-04-28 07:15;0
2019-04-28 07:30;0
2019-04-28 07:45;0
2019-04-28 08:00;0
2019-04-28 08:15;0,1
2019-04-28 08:30;0,05
2019-04-28 08:45;0
2019-04-28 09:00;0
2019-04-28 09:15;0
2019-04-28 09:30;0
2019-04-28 09:45;0
2019-04-28 10:00;0
2019-04-28 10:15;0
2019-04-28 10:30;0
2019-04-28 10:45;0
2019-04-28 11:00;0
2019-04-28 11:15;0
2019-04-28 11:30;0,1
2019-04-28 11:45;0
2019-04-28 12:00;0
2019-04-28 12:15;0,05
2019-04-28 12:30;0,25
2019-04-28 12:45;0
2019-04-28 13:00;0
2019-04-28 13:15;0
2019-04-28 13:30;0
2019-04-28 13:45;0
2019-04-28 14:00;0
2019-04-28 14:15;0
2019-04-28 14:30;0,05
2019-04-28 14:45;0
2019-04-28 15:00;0
2019-04-28 15:15;0,35
2019-04-28 15:30;1,55
2019-04-28 15:45;1,5
2019-04-28 16:00;1,25
2019-04-28 16:15;0,95
2019-04-28 16:30;1,3
2019-04-28 16:45;2,8
2019-04-28 17:00;1,1
2019-04-28 17:15;0,75
2019-04-28 17:30;0,75
2019-04-28 17:45;0,45
2019-04-28 18:00;0,35
2019-04-28 18:15;0,6
2019-04-28 18:30;0,1
2019-04-28 18:45;0,3
2019-04-28 19:00;0,4
2019-04-28 19:15;1,8
2019-04-28 19:30;0,8
2019-04-28 19:45;0,35
2019-04-28 20:00;0,55
2019-04-28 20:15;0,2
2019-04-28 20:30;0
2019-04-28 20:45;0
2019-04-28 21:00;0
2019-04-28 21:15;0
2019-04-28 21:30;0
2019-04-28 21:45;0
2019-04-28 22:00;0
2019-04-28 22:15;0
2019-04-28 22:30;0
2019-04-28 22:45;0
2019-04-28 23:00;0
2019-04-28 23:15;0
2019-04-28 23:30;0
2019-04-28 23:45;0

